Location: Champs
(48.8539°N, 2.6040°E)
Time: 12:04:25
(UTC+00:00)

Cosmos 1484 Rocket - Pass Details

Date: 26 October 2021
Orbit: 505 x 556 km, 97.5° (Epoch: 06 December)

Event Time Altitude Azimuth Distance (km) Brightness Sun altitude
Rises 05:33:20 0° 357° (N) 2,665 6.2 -9.4°
Reaches altitude 10° 05:36:05 10° 335° (NNW) 1,782 5.1 -9.0°
Maximum altitude 05:38:24 16° 298° (WNW) 1,467 4.4 -8.6°
Drops below altitude 10° 05:40:43 10° 261° (W) 1,792 4.8 -8.2°
Enters shadow 05:41:11 - 256° (WSW) 1,919 5.0 -8.2°
